User: anonymous   Login
Location: Unspecified
(0.0000°N, 0.0000°E)
Time: 03:31:03
(UTC+02:00)
Language:

GP-B - Orbit

View from above orbital plane
View from above orbital plane
View from above satellite
View from above satellite

Ground track
Ground track

The orbit data is extracted from the following two-line orbital elements,

1 28230U 04014A   16273.38587814  .00000270  00000-0  34829-4 0  9996
2 28230  89.8540 126.8754 0002958  75.1232 285.0318 14.78466661670568
Epoch (UTC): 29 September 2016 09:15:39
Eccentricity: 0.0002958
inclination: 89.8540°
perigee height: 632 km
apogee height: 636 km
right ascension of ascending node: 126.8754°
argument of perigee: 75.1232°
revolutions per day: 14.78466661
mean anomaly at epoch: 285.0318°
orbit number at epoch: 67056

The dashed part of the orbit path shows where the satellite is in the earth's shadow,  

DLR